Rochester, NH

3:19 PM EDT on May 22, 2018 (GMT -0400)
Skyhaven

Weather History for KDAW - November, 2012

Change the Weather History Date:

Saturday, November 3, 2012

  Actual Average (KPSM) Record (KPSM)
Temperature  
Mean Temperature 46 °F -  
Max Temperature 51 °F 51 °F 77 °F (1990)
Min Temperature 42 °F 35 °F 16 °F (1980)
Degree Days  
Heating Degree Days 18    
Moisture  
Dew Point 33 °F    
Average Humidity 63    
Maximum Humidity 74    
Minimum Humidity 48    
Precipitation  
Precipitation 0.00 in - - ()
Sea Level Pressure  
Sea Level Pressure 29.67 in    
Wind  
Wind Speed 9 mph (WNW)    
Max Wind Speed 17 mph    
Max Gust Speed 25 mph    
Visibility 10 miles    
Events      
Averages and records for this station are not official NWS values.
T = Trace of Precipitation, MM = Missing Value Source: NWS Daily Summary

Daily Weather History Graph

Daily Weather History Graph

Search for Another Location

Airport or City:

Astronomy

Nov. 03, 2012 Rise Set
Actual Time 7:21 AM EDT 5:32 PM EDT
Civil Twilight 6:52 AM EDT 6:01 PM EDT
Nautical Twilight 6:18 AM EDT 6:35 PM EDT
Astronomical Twilight 5:44 AM EDT 7:08 PM EDT
Moon 9:07 PM EDT (11/3) 11:26 AM EDT (11/3)
Length of Visible Light 11h 09m
Length of Day
10h 10m
Waning Gibbous, 80% of the Moon is Illuminated
Nov 3
Waning Gibbous
Nov 6
Last Quarter
Nov 13
New
Nov 20
First Quarter
Nov 28
Full

Hourly Weather History & Observations

Time (EDT) Temp. Windchill Dew Point Humidity Pressure Visibility Wind Dir Wind Speed Gust Speed Precip Events Conditions
1:51 AM 44.1 °F 40.8 °F 35.1 °F 71% 29.58 in 10.0 mi NW 5.8 mph - N/A   Overcast
2:51 AM 44.1 °F 39.0 °F 34.0 °F 68% 29.58 in 10.0 mi WNW 9.2 mph - N/A   Overcast
3:51 AM 43.0 °F 36.4 °F 35.1 °F 74% 29.59 in 10.0 mi NW 12.7 mph - N/A   Overcast
4:51 AM 44.1 °F 39.0 °F 34.0 °F 68% 29.59 in 10.0 mi WNW 9.2 mph - N/A   Overcast
5:51 AM 44.1 °F 39.0 °F 34.0 °F 68% 29.60 in 10.0 mi WNW 9.2 mph - N/A   Overcast
6:51 AM 44.1 °F 39.0 °F 34.0 °F 68% 29.62 in 10.0 mi WNW 9.2 mph 19.6 mph N/A   Overcast
7:51 AM 44.1 °F 40.1 °F 34.0 °F 68% 29.64 in 10.0 mi WNW 6.9 mph - N/A   Overcast
8:51 AM 45.0 °F 41.8 °F 35.1 °F 68% 29.66 in 10.0 mi Variable 5.8 mph - N/A   Overcast
9:51 AM 45.0 °F 40.1 °F 34.0 °F 65% 29.67 in 10.0 mi WNW 9.2 mph - N/A   Partly Cloudy
10:51 AM 46.0 °F 41.4 °F 34.0 °F 63% 29.68 in 10.0 mi WNW 9.2 mph - N/A   Overcast
11:51 AM 46.9 °F - 34.0 °F 61% 29.68 in 10.0 mi WNW 9.2 mph 20.7 mph N/A   Partly Cloudy
12:51 PM 46.9 °F - 33.1 °F 59% 29.67 in 10.0 mi NW 15.0 mph 21.9 mph N/A   Partly Cloudy
2:51 PM 51.1 °F - 32.0 °F 48% 29.66 in 10.0 mi WNW 15.0 mph 24.2 mph N/A   Clear
3:51 PM 48.9 °F - 33.1 °F 54% 29.68 in 10.0 mi NW 13.8 mph - N/A   Clear
4:51 PM 46.9 °F - 30.9 °F 54% 29.69 in 10.0 mi WNW 11.5 mph 25.3 mph N/A   Clear
5:51 PM 45.0 °F 40.6 °F 30.9 °F 58% 29.71 in 10.0 mi NW 8.1 mph 18.4 mph N/A   Clear
6:51 PM 44.1 °F 37.1 °F 30.0 °F 58% 29.72 in 10.0 mi WNW 15.0 mph 21.9 mph N/A   Scattered Clouds
7:51 PM 43.0 °F 35.1 °F 30.0 °F 60% 29.73 in 10.0 mi WNW 17.3 mph 24.2 mph N/A   Mostly Cloudy
8:51 PM 43.0 °F 37.2 °F 30.9 °F 62% 29.74 in 10.0 mi WNW 10.4 mph 20.7 mph N/A   Clear
9:51 PM 42.1 °F 37.7 °F 30.9 °F 65% 29.75 in 10.0 mi Variable 6.9 mph - N/A   Mostly Cloudy
10:51 PM 43.0 °F 37.7 °F 30.9 °F 62% 29.74 in 10.0 mi WNW 9.2 mph 19.6 mph N/A   Overcast
11:51 PM 43.0 °F 38.8 °F 30.9 °F 62% 29.74 in 10.0 mi WNW 6.9 mph - N/A   Overcast